CAPE
2188 1830 1811 1364 1278 1152 1577 1416 2332 2530 4219 3479 3675 3241 3181 3025 3529 3649 3307 2914 3106 3256 3031 3588 3437 3478 3103 2988 2892 2813 2173 2327 1922 1794 2257 2054 3584 3330 1988 2374 2749 2288 1987
2340 2175 1870 2229 1664 1348 813 1566 2700 2619 3070 4355 3451 3978 3159 3045 3176 3285 3097 2290 2912 3224 3586 3562 3642 3291 3863 3544 3033 3219 3228 3943 3298 3016 3061 2629 2388 2284 3186 3579 2944 2019 1914
2656 2522 2338 2073 2260 1985 1008 1578 1988 2490 3352 2901 3861 3049 3420 2893 2756 3011 3209 2781 3077 3169 3375 3772 3504 3773 3786 3218 3406 2714 2850 2691 2688 2705 2394 2886 3023 2922 2497 3594 3486 2598 2247
2457 2419 2461 2407 2184 2063 2174 1088 2437 2372 2449 3248 3074 3327 3248 3058 2664 2461 3059 3034 3051 2983 3095 2858 3157 3285 3590 3953 3827 3972 3827 3721 3292 3277 2658 2396 2449 2536 2973 2782 2900 3362 2917
2065 2433 2467 2621 2452 2440 2328 2012 1070 2505 2787 3025 3172 3156 3248 3146 2735 2568 2402 2857 3029 3195 3115 3028 3006 3145 2848 3379 3403 3905 3754 3825 3308 3010 2849 2754 2472 3007 2829 2566 2560 3147 3182
1991 2270 2493 2701 2623 2654 2477 2379 2350 2134 2632 3077 3114 3222 3272 3036 2251 1642 1873 2136 3058 2932 2902 2942 3333 2147 1956 2133 2090 2343 2409 3687 3511 3346 2997 2705 2975 3148 3137 3196 2925 2694 2764
2298 2338 2455 2633 2771 2596 2653 2648 2841 2558 2636 3005 3110 3325 3322 3221 2287 1438 1246 1813 1968 2348 3037 3006 3125 2480 2269 3179 2427 2069 2136 2161 2168 2331 2511 2598 2639 2744 2980 3443 3327 3333 3559
2419 2646 2519 2640 2652 2885 2875 2771 2740 2818 2727 2932 3083 3304 3408 3350 2838 2150 1279 1174 1900 2239 2529 2511 2908 2855 2903 3344 3384 3373 2701 2465 2315 2169 2142 2448 2879 3195 3561 3554 3677 3705 3381
3007 2684 2697 2583 2788 3063 2960 3019 2814 2890 2961 2983 3125 3515 3478 3383 3041 2696 2140 1452 1314 1778 1888 1976 2590 3119 2794 2171 1748 1992 2012 2054 1991 2090 2496 2951 2839 2828 3082 3263 2760 2561 2786
2539 2833 3247 2846 3181 3210 3191 3164 3000 2999 3011 3076 3282 3422 3428 3608 3347 2879 2537 1926 1757 1578 1943 2211 2056 1727 1679 1777 1888 2642 2691 2718 2868 2862 2953 2878 3054 3169 3064 3120 3144 3329 3263
2677 3187 2898 3670 3293 3497 3587 3554 3368 3358 3230 3275 3244 3450 3775 3611 3845 3346 2700 2301 2173 2172 2009 1976 2232 2186 2064 1913 2044 2294 2497 2661 3069 3294 3349 3194 3504 3723 4063 3691 3716 3643 3512
3502 2904 3705 3822 3497 3651 3735 3882 3845 3690 3675 3470 3493 3474 3604 3821 3371 3497 3307 2693 2256 2365 2193 2025 1921 1575 1872 2024 1801 1600 1630 2137 2354 2553 2617 2772 3012 3419 4100 4526 4791 4413 4031
4067 3361 3921 3853 3739 3598 3734 3975 3937 3965 3794 3458 3623 3409 3722 3648 3933 3273 3164 3071 2763 2292 2374 2204 1898 1502 1861 1996 1838 1679 1835 2136 2423 2719 2937 3203 3635 3719 3905 4400 4773 4242 4040
4082 3501 3984 3979 3707 3565 3759 3794 3900 3815 3804 3526 3360 3670 3410 3212 3263 3640 3078 2908 2942 2719 2531 2355 2242 1979 1753 2016 2702 2980 2918 2870 2961 3363 3536 3804 3918 4170 4112 4382 4355 3952 3372
4070 3727 3885 3701 3367 3731 3367 3648 3742 3660 3509 3406 3325 3066 3291 3043 2652 2329 2828 2489 2359 2258 2173 2127 2248 2213 1957 1958 2955 3697 3437 3465 3417 3449 3568 3676 3825 4179 4417 4552 3881 3567 3183
3958 3901 3569 3376 3510 3543 3206 3069 3207 3282 2973 3054 2785 2839 2348 2146 2012 1937 1704 2500 2249 2350 3077 3043 2849 2869 2957 3009 3094 3405 4131 3818 3839 4050 4203 4297 4341 3878 3460 3634 3739 3173 2848
2353 2425 3029 2795 3235 3277 3272 3568 2837 2880 2828 2406 2570 2298 2297 2186 2515 2590 2384 2320 2982 3327 3547 3545 3491 3606 3767 3892 4518 4420 3627 3309 3454 3966 4198 4209 3671 4042 3618 3172 2764 2671 2832
2079 2282 2475 2628 2799 3137 3282 3199 3204 2534 2458 2435 2180 2104 2165 2240 2609 2826 2843 2854 3010 3198 3701 4099 4308 4490 4659 4548 4193 3828 3588 3834 4399 4292 4296 3875 3368 3816 3645 3280 2678 2512 2790
1954 2095 2219 2574 2439 2785 3567 3204 3002 3318 3221 3235 2839 2299 2257 2303 2389 2301 2301 3243 3603 3613 3646 3513 3501 3568 3973 4739 4684 4881 4554 4370 4134 4408 4510 3943 3455 3553 2983 2945 2776 2552 2464
1345 2118 2343 2215 2196 2107 2266 2392 2652 2036 1934 2519 2402 2408 2130 1848 1696 1473 1291 1597 2143 2773 2942 3379 3880 3831 3820 3895 3978 4398 4759 4735 4406 3874 3348 3627 3444 3611 3207 2592 2458 2285 2287
1173 1340 1511 1544 1422 1548 1942 1779 1549 1438 1354 1127 944 753 1662 1523 2286 2552 1869 1682 1518 2052 2591 2823 3068 4376 4407 4959 4932 4286 3766 4275 3948 3740 3350 3173 2776 2627 2647 2604 2534 2032 1372
629 967 778 876 885 819 940 1067 930 702 71 364 1082 906 1061 1250 1853 1105 1317 1300 1265 221 2071 2957 3107 2929 2552 2634 3064 3231 3421 3274 3347 2851 2639 2619 2587 2454 2306 1780 1933 1923 1246
350 406 635 519 552 533 464 382 403 191 48 30 87 233 379 618 1085 1209 1294 1053 1364 1636 1959 2191 2813 2708 2411 2605 2619 2178 2148 2066 2053 1944 1667 1661 1574 1287 1258 1194 923 781 706
0 0 1 1 1 4 28 33 115 92 121 72 131 312 307 287 311 877 1126 1190 1209 1250 1274 1611 2057 2171 2315 2350 2136 2070 1779 1399 1395 1421 1456 1432 1821 1372 1186 1039 977 793 738
0 0 0 0 0 0 0 0 6 21 49 139 226 199 190 353 622 673 624 865 1284 1548 1568 1753 1615 1976 1729 1285 1459 1405 995 790 780 828 851 843 1366 1429 1391 574 567 906 565
0 0 0 0 0 0 0 0 7 9 19 158 220 238 396 521 593 457 349 321 171 1 75 314 457 44 119 191 203 477 543 358 341 309 332 502 461 576 595 1069 560 457 359
CIN
-9 -19 -12 -58 -60 -78 -26 -41 -28 -34 -13 -18 -8 -11 -11 -8 -5 -8 -14 -23 -21 -20 -29 -14 -23 -34 -29 -36 -39 -41 -47 -33 -44 -93 -64 -104 -43 -35 -143 -145 -133 -174 -179
-11 -12 -24 -3 -33 -62 -97 -32 -11 -24 -26 -5 -20 -5 -8 -6 -8 -9 -6 -13 -11 -13 -14 -15 -10 -4 -11 -36 -57 -53 -26 -16 -23 -26 -43 -90 -112 -142 -110 -103 -130 -163 -245
-8 -2 -1 -8 -3 -18 -112 -40 -17 -18 -10 -18 -8 -25 -7 -8 -11 -8 -7 -13 -13 -11 -9 -10 -13 -9 -12 -19 -30 -46 -45 -52 -65 -51 -97 -85 -89 -98 -116 -102 -131 -170 -191
-13 -9 -5 -10 -18 -19 -15 -97 -11 -13 -22 -6 -16 -8 -8 -9 -14 -8 -6 -7 -9 -8 -15 -19 -13 -14 -14 -15 -16 -21 -19 -29 -40 -38 -66 -105 -130 -160 -137 -104 -82 -82 -89
-24 -19 -19 -11 -9 -6 -5 -29 -103 -11 -8 -12 -12 -13 -6 -2 -8 -16 -19 -8 -9 -6 -11 -16 -14 -10 -6 -12 -9 -20 -27 -17 -17 -33 -49 -69 -110 -78 -95 -112 -57 -46 -75
-44 -42 -19 -6 -8 -3 -4 -6 -10 -19 -9 -6 -9 -12 -7 -12 -43 -73 -68 -39 -10 -11 -12 -19 -20 -10 -33 -21 -33 -18 -25 -34 -36 -38 -62 -95 -87 -65 -55 -72 -88 -79 -79
-49 -41 -30 -19 -9 -11 -4 -5 -7 -8 -7 -5 -4 -4 -7 -22 -55 -88 -97 -79 -59 -38 -16 -13 -7 -12 -26 -28 -41 -55 -59 -63 -92 -140 -169 -171 -174 -149 -112 -50 -56 -63 -39
-63 -42 -45 -33 -34 -8 -4 -6 -7 -5 -5 -7 -6 -5 -7 -26 -62 -73 -95 -181 -92 -69 -45 -53 -28 -39 -49 -31 -44 -38 -85 -92 -162 -134 -179 -218 -188 -126 -65 -63 -57 -57 -93
-25 -62 -69 -60 -37 -10 -5 -5 -4 -5 -3 -4 -6 -4 -5 -20 -49 -70 -66 -86 -146 -129 -123 -120 -75 -51 -81 -103 -140 -165 -196 -219 -194 -208 -222 -173 -185 -170 -126 -93 -138 -122 -114
-95 -60 -26 -44 -13 -13 -16 -7 -7 -4 -6 -4 -6 -9 -12 -20 -37 -58 -72 -103 -102 -132 -142 -156 -138 -180 -189 -166 -182 -131 -149 -194 -161 -173 -174 -173 -134 -112 -99 -75 -62 -39 -35
-57 -12 -48 -20 -31 -20 -6 -3 -4 -3 -4 -6 -13 -9 -6 -25 -23 -49 -70 -77 -93 -95 -117 -146 -161 -172 -176 -194 -189 -234 -239 -208 -164 -151 -147 -164 -123 -96 -71 -39 -17 -14 -15
-30 -36 -16 -17 -16 -6 -8 -4 -3 -4 -3 -5 -6 -6 -6 -16 -40 -46 -61 -93 -131 -105 -121 -127 -147 -141 -162 -176 -217 -283 -325 -275 -250 -217 -225 -223 -185 -113 -34 -22 -32 -32 -21
-24 -25 -10 -15 -13 -11 -10 -2 -1 -3 -1 -1 0 -6 -1 -7 -13 -55 -80 -83 -98 -133 -160 -151 -148 -272 -242 -190 -197 -204 -178 -192 -185 -166 -166 -157 -88 -82 -56 -19 -16 -21 -10
-19 -36 -11 -12 -21 -11 -4 -2 0 0 0 0 -2 -1 -12 -11 -10 -17 -68 -89 -116 -130 -150 -190 -210 -226 -271 -250 -185 -157 -161 -159 -152 -120 -99 -77 -59 -44 -37 -26 -14 -9 -36
-11 -10 -6 -2 -32 -10 -7 -7 -5 -3 -4 -12 -16 -33 -4 -24 -55 -62 -62 -119 -138 -177 -184 -229 -232 -248 -291 -296 -169 -90 -110 -112 -120 -121 -102 -91 -65 -30 -10 -9 -21 -29 -33
-4 -2 -1 -6 -17 -5 -11 -15 -18 -12 -18 -23 -48 -13 -37 -21 -57 -65 -75 -96 -96 -61 -31 -54 -145 -154 -146 -146 -135 -96 -38 -65 -59 -43 -32 -24 -13 -11 -23 -9 -3 -34 -40
-14 -38 -21 -33 -40 -26 -12 -1 -19 -25 -9 -15 -14 -32 -28 -125 -80 -56 -147 -177 -58 -27 -34 -44 -53 -57 -44 -29 -7 -27 -81 -107 -74 -21 -10 -9 -17 -1 -5 -17 -51 -66 -44
-9 -11 -28 -34 -22 -14 -1 0 -2 -48 -46 -44 -25 -16 -22 -63 -47 -36 -53 -78 -64 -60 -42 -14 -6 -9 -13 -23 -37 -54 -62 -39 -11 -14 -7 -8 -14 -1 0 -5 -22 -36 -28
-1 -4 -3 -6 -10 -3 -1 0 -1 -2 -7 -3 -16 -17 -32 -30 -38 -45 -54 -97 -56 -39 -29 -40 -53 -44 -23 -21 -18 -13 -18 -12 -19 -12 -8 -8 -2 0 -7 -8 -9 -24 -21
0 0 0 0 -1 0 -3 -6 -1 -14 -7 -1 -8 -13 -31 -54 -78 -90 -115 -86 -153 -69 -58 -37 -13 -21 -36 -42 -31 -18 -14 -6 -5 -11 -10 -1 0 0 0 -9 -16 -33 -27
0 0 0 0 -1 -1 0 0 0 -1 -4 -27 -129 -162 -59 -40 -59 -44 -57 -41 -149 -136 -49 -64 -81 -17 -21 -21 -16 -20 -21 -7 -7 -1 -4 -6 -13 -6 -7 -6 -4 -12 -69
-1 0 0 0 -2 -3 -8 -2 -1 -1 -64 -2 -31 -40 -41 -15 -22 -35 -88 -129 -151 -138 0 -2 -71 -6 -50 -33 -8 -12 -6 -1 -2 -20 -26 -7 -9 -9 -8 -30 -26 -29 -68
-2 0 0 0 -1 -3 -18 -40 -27 -19 -85 -57 -6 -234 -108 -37 -16 -27 -28 -88 -70 -36 -30 -44 -3 0 -17 -2 -3 -37 -53 -41 -21 -15 -25 -30 -24 -32 -36 -66 -101 -111 -128
-11 0 -12 -15 -23 -25 -28 -55 -4 -16 -29 -40 -70 -77 -95 -56 -139 -23 -16 -43 -54 -34 -36 -38 -12 -7 -1 0 0 0 -9 -40 -13 -1 -3 -14 -2 -16 -38 -59 -48 -75 -81
0 0 0 0 0 0 0 0 -22 -11 -3 -2 -1 -23 -94 -60 -61 0 -28 -29 -13 -5 -1 -4 -9 0 -4 -2 0 -2 -62 -94 -67 -41 -26 -31 -4 -2 -8 -92 -109 -48 -83
0 0 0 0 0 0 0 0 -39 -36 -34 -8 -9 -11 -41 -13 -4 -6 -45 -61 -92 -145 -99 -25 -18 -294 -276 -187 -153 -79 -67 -132 -162 -176 -145 -111 -106 -59 -73 -10 -73 -80 -83
Wind_Speed
18 17 15 15 15 13 14 11 10 11 13 16 14 13 10 4 2 2 5 3 9 6 2 1 2 9 9 10 9 6 4 5 4 7 6 7 4 7 11 14 17 20 24
15 19 17 16 16 15 11 12 11 10 13 15 15 14 12 8 5 4 5 4 8 7 4 1 1 5 8 11 11 11 9 8 7 7 5 6 9 9 13 15 19 23 24
17 18 21 18 16 14 12 12 13 11 14 14 15 12 14 11 7 6 7 6 3 7 5 1 3 5 7 8 8 8 6 5 5 5 6 6 8 7 9 11 18 23 23
21 15 18 18 16 15 18 15 16 13 12 14 13 14 12 12 10 8 10 9 4 1 5 3 2 3 5 5 7 8 7 8 7 6 6 7 7 10 8 9 9 12 16
19 18 14 18 19 19 18 19 14 16 16 15 15 14 13 11 11 12 11 13 7 1 2 3 3 3 2 3 7 8 5 5 5 4 4 2 0 1 3 7 10 11 12
19 16 17 20 21 19 17 18 20 17 18 18 14 14 14 11 11 15 16 11 8 3 2 6 7 4 6 6 5 7 8 6 5 4 3 2 2 4 7 8 7 9 11
19 20 18 19 20 18 19 18 17 17 19 19 16 15 13 10 12 15 18 8 3 4 4 5 7 8 7 7 5 8 7 3 3 3 2 4 4 8 10 11 12 14 17
20 20 21 18 18 22 20 17 16 18 17 19 17 15 15 12 13 13 13 4 4 4 5 5 8 9 13 13 9 7 7 3 1 3 6 7 8 12 16 16 16 18 17
16 17 18 21 19 20 19 17 19 19 19 18 17 16 14 13 14 13 16 7 2 3 4 7 11 11 9 9 11 11 9 7 6 6 7 10 14 15 17 17 18 17 17
14 14 17 20 20 18 17 17 19 20 18 21 17 15 15 15 15 14 15 8 7 7 5 5 5 6 11 8 9 8 6 5 7 6 9 10 15 17 21 24 23 24 23
17 16 17 19 17 19 20 19 18 19 20 20 17 18 16 16 14 17 15 10 11 11 7 8 11 5 5 5 6 4 3 7 8 11 9 11 13 15 23 26 28 29 28
24 21 19 17 19 21 21 20 17 18 19 21 20 21 20 17 17 18 17 13 13 9 8 11 13 11 5 2 5 3 6 15 14 13 12 12 14 16 21 25 30 31 30
30 26 22 20 17 20 20 19 21 19 18 18 22 23 22 22 20 19 20 16 11 11 9 15 28 29 25 19 12 13 18 17 14 14 10 8 16 19 23 26 32 34 32
32 29 27 23 18 18 21 21 22 22 21 20 19 22 23 25 24 25 25 22 13 15 10 10 14 20 24 20 23 21 17 18 14 12 15 18 23 28 27 30 34 34 33
38 35 31 28 22 18 16 20 22 23 23 20 19 21 27 25 24 24 29 27 25 22 24 20 17 17 16 16 15 15 20 22 21 22 22 24 31 34 34 34 39 36 31
42 37 33 36 29 24 17 21 37 24 32 26 23 26 34 41 40 41 35 27 31 37 30 24 23 21 19 20 19 19 23 26 24 26 29 32 34 37 34 35 40 34 29
60 57 45 37 32 30 23 16 22 31 37 35 35 40 36 37 41 42 42 45 36 40 31 31 30 28 26 25 30 35 32 31 31 33 34 36 39 41 40 39 37 32 28
68 60 54 44 38 33 27 23 27 25 30 36 34 40 38 35 38 40 39 48 42 38 35 34 34 36 37 37 37 35 35 39 39 37 37 38 44 41 43 41 36 30 29
69 63 58 55 55 42 37 31 38 31 32 34 43 43 46 45 45 45 36 40 39 37 35 34 35 36 38 41 40 44 46 46 44 39 39 37 36 39 37 36 32 28 27
69 68 63 62 62 65 57 53 51 55 47 45 46 44 43 43 42 44 45 44 43 38 38 41 45 42 37 40 42 45 48 50 49 47 42 38 32 31 29 29 31 29 31
67 69 63 65 66 65 64 62 55 57 48 39 40 39 45 47 50 53 55 53 58 50 51 59 48 61 43 44 45 49 46 45 46 41 38 32 30 30 29 29 30 33 34
61 69 77 75 73 68 67 65 72 69 nan 63 57 62 61 58 63 68 64 74 54 65 53 49 70 44 54 47 42 38 37 37 37 36 36 32 32 33 32 31 34 35 36
66 68 71 74 73 74 73 75 78 78 nan nan nan 56 58 66 70 64 65 62 75 52 50 66 49 54 61 51 50 48 47 42 39 41 42 39 37 36 39 41 42 41 42
nan nan nan nan nan nan nan nan 79 nan 84 nan 58 49 43 30 47 80 55 46 41 39 38 36 42 58 56 55 52 50 49 45 41 40 44 43 44 46 47 47 47 46 47
nan nan nan nan nan nan nan nan nan nan nan 36 40 38 43 32 46 37 36 39 41 43 45 45 50 59 65 66 61 57 50 48 47 41 45 48 46 46 49 51 51 51 50
nan nan nan nan nan nan nan nan nan nan nan 45 49 47 49 46 47 40 42 47 47 nan nan 51 56 nan 66 61 59 59 56 56 57 55 54 58 60 62 61 59 56 58 58
Wind_Direction
261 257 249 255 247 241 227 222 237 215 206 250 256 266 287 301 308 358 62 53 354 345 72 254 88 124 154 164 172 150 135 140 132 135 128 130 110 59 57 39 26 19 16
264 252 252 243 251 249 233 246 239 232 228 230 253 255 269 275 282 313 2 52 350 347 12 187 202 155 152 157 165 157 166 177 179 152 162 141 103 76 48 26 24 19 12
277 254 251 249 250 255 250 239 255 241 236 244 251 258 262 276 280 311 330 1 46 332 346 250 190 197 177 179 157 160 166 168 163 173 136 102 87 75 57 34 18 25 18
292 273 257 259 261 256 252 251 246 258 257 253 254 261 261 272 283 297 316 323 354 340 320 330 215 200 201 200 184 182 177 170 175 174 144 106 80 69 31 13 6 359 3
300 290 277 255 250 252 255 256 252 247 256 261 255 264 270 271 276 291 307 314 326 306 218 257 238 213 136 179 207 206 188 168 171 150 120 89 114 304 359 349 354 355 354
307 294 263 253 252 251 251 260 260 255 255 264 268 266 272 264 285 305 311 308 305 303 206 173 192 185 132 152 197 183 189 204 190 174 134 120 351 347 329 324 351 359 11
303 290 275 265 257 258 255 253 262 264 253 262 268 267 273 278 275 303 316 307 276 242 252 193 184 170 173 186 160 131 154 149 65 114 91 31 28 346 344 351 352 356 1
299 291 284 275 268 260 255 256 255 260 262 258 269 267 264 266 277 290 303 320 272 262 260 210 189 181 180 195 177 177 204 197 270 322 8 9 354 335 333 342 349 351 347
297 315 295 288 274 265 268 266 256 258 257 253 260 268 274 267 282 292 281 262 236 248 249 208 201 200 180 157 176 184 201 204 227 324 351 342 345 343 335 321 329 338 347
301 307 283 278 275 270 268 265 257 252 252 243 251 260 270 265 266 286 290 269 275 254 259 244 211 188 192 207 217 220 217 232 259 265 276 294 314 323 343 330 331 332 335
260 271 279 272 275 268 259 255 257 251 246 245 248 251 260 266 257 284 296 274 264 267 263 245 227 260 190 202 262 232 229 265 278 279 279 292 305 320 316 317 321 321 325
253 271 268 276 259 256 266 260 261 261 255 250 249 251 252 258 259 268 290 310 274 265 251 232 230 227 232 154 244 262 267 273 265 272 282 300 313 315 307 310 311 313 316
248 266 264 271 269 255 259 258 255 261 261 256 252 252 250 255 252 270 286 291 288 271 260 235 242 231 228 235 260 270 279 275 279 291 302 295 307 306 308 304 301 301 305
249 260 260 260 266 263 249 251 252 257 260 262 256 252 246 241 246 254 255 255 272 277 253 225 219 227 238 240 252 267 268 282 284 283 292 310 306 297 303 300 293 293 296
245 251 254 247 251 262 247 250 250 252 253 256 261 250 246 244 246 251 262 259 261 263 261 251 249 245 234 233 238 255 277 287 292 296 300 302 300 307 305 290 288 291 295
226 238 240 257 240 242 252 249 230 237 254 254 251 253 245 242 251 250 252 267 270 267 261 258 256 255 249 245 252 261 271 274 278 285 294 296 292 292 290 283 287 292 292
221 225 233 252 245 241 245 257 251 234 233 235 254 252 253 257 249 248 249 246 251 260 253 254 253 252 248 249 256 262 269 277 280 282 286 290 290 289 282 285 287 287 290
223 224 229 230 244 256 253 253 258 255 255 241 232 239 247 255 259 257 250 250 244 241 254 256 253 246 244 254 260 266 272 273 277 282 289 292 294 289 284 284 285 288 292
222 227 225 229 236 238 252 255 253 260 263 250 241 239 242 238 234 230 230 240 244 247 249 249 250 250 252 255 258 263 272 274 274 278 279 287 280 277 280 281 279 287 287
220 226 226 229 231 234 230 248 248 247 235 239 235 232 242 242 236 236 235 233 233 231 241 242 248 258 252 268 271 274 275 277 274 277 275 276 276 280 281 281 284 285 285
216 224 226 229 230 233 237 238 242 246 244 230 234 230 242 237 238 236 236 239 233 237 229 240 241 242 261 273 274 273 270 271 273 272 275 279 285 284 285 285 282 281 284
222 221 228 232 232 235 238 235 234 230 nan 218 222 228 224 227 230 235 238 247 254 241 221 243 248 251 260 258 263 273 279 272 267 269 271 275 280 281 278 276 279 285 286
223 223 227 229 233 234 238 238 235 235 nan nan nan 243 246 237 236 231 237 260 250 251 248 246 240 253 256 259 260 261 263 261 258 257 258 266 278 280 280 281 280 279 281
nan nan nan nan nan nan nan nan 232 nan 238 nan 239 236 256 269 265 235 233 244 247 244 248 235 240 248 252 257 259 258 259 259 263 265 262 267 269 272 274 274 275 279 279
nan nan nan nan nan nan nan nan nan nan nan 235 245 248 248 238 249 248 246 247 249 252 247 247 249 250 251 249 250 251 252 251 260 266 275 274 271 270 274 278 278 279 280
nan nan nan nan nan nan nan nan nan nan nan 233 239 242 245 245 241 239 245 251 252 nan nan 255 255 nan 253 255 254 253 255 255 259 261 269 271 271 272 272 272 272 280 281